| time (UTC) | temp F | wind direction | speed MPH | gust MPH | rain 1hr in | rain 24hr in | rain mn in | humidity % | barometer mb |
| 20260506123437 | 57 | 260 | 1.0 | 2.0 | 0.00 | 0.00 | 0.00 | 74 | 1037.1 |
| 20260506122934 | 57 | 278 | 1.0 | 1.0 | 0.00 | 0.00 | 0.00 | 74 | 1036.9 |
| 20260506122431 | 57 | 207 | 0.0 | 0.0 | 0.00 | 0.00 | 0.00 | 75 | 1036.7 |
| 20260506121929 | 57 | 276 | 1.0 | 2.0 | 0.00 | 0.00 | 0.00 | 75 | 1036.7 |
| 20260506121426 | 57 | 261 | 0.0 | 1.0 | 0.00 | 0.00 | 0.00 | 75 | 1036.6 |
| 20260506120923 | 57 | 272 | 0.0 | 2.0 | 0.00 | 0.00 | 0.00 | 75 | 1036.6 |
| 20260506120420 | 57 | 247 | 1.0 | 3.0 | 0.00 | 0.00 | 0.00 | 75 | 1036.5 |
| 20260506115917 | 57 | 265 | 2.0 | 2.0 | 0.00 | 0.00 | 0.00 | 75 | 1036.4 |
| 20260506115416 | 57 | 215 | 2.0 | 4.0 | 0.00 | 0.00 | 0.00 | 76 | 1036.5 |
| 20260506114914 | 57 | 261 | 0.0 | 1.0 | 0.00 | 0.00 | 0.00 | 75 | 1036.6 |
| 20260506114411 | 58 | 265 | 2.0 | 2.0 | 0.00 | 0.00 | 0.00 | 75 | 1036.4 |
| 20260506113910 | 58 | 258 | 1.0 | 2.0 | 0.00 | 0.00 | 0.00 | 74 | 1036.4 |
| 20260506113407 | 58 | 260 | 0.0 | 2.0 | 0.00 | 0.00 | 0.00 | 74 | 1036.3 |
| 20260506112903 | 58 | 256 | 0.0 | 2.0 | 0.00 | 0.00 | 0.00 | 75 | 1036.0 |
| 20260506112401 | 58 | 243 | 0.0 | 1.0 | 0.00 | 0.00 | 0.00 | 74 | 1036.0 |
| 20260506111858 | 58 | 237 | 2.0 | 3.0 | 0.00 | 0.00 | 0.00 | 74 | 1036.0 |
| 20260506111356 | 59 | 231 | 0.0 | 2.0 | 0.00 | 0.00 | 0.00 | 74 | 1035.5 |
| 20260506110853 | 59 | 213 | 0.0 | 3.0 | 0.00 | 0.00 | 0.00 | 74 | 1036.0 |
| 20260506110350 | 59 | 273 | 0.0 | 1.0 | 0.00 | 0.00 | 0.00 | 74 | 1035.8 |
| 20260506105847 | 59 | 304 | 1.0 | 2.0 | 0.00 | 0.00 | 0.00 | 74 | 1035.7 |
| 20260506105343 | 59 | 250 | 0.0 | 1.0 | 0.00 | 0.00 | 0.00 | 75 | 1035.2 |
| 20260506104841 | 59 | 278 | 0.0 | 0.0 | 0.00 | 0.00 | 0.00 | 75 | 1035.6 |
| 20260506104338 | 59 | 303 | 0.0 | 3.0 | 0.00 | 0.00 | 0.00 | 75 | 1035.5 |
| 20260506103836 | 59 | 272 | 0.0 | 1.0 | 0.00 | 0.00 | 0.00 | 75 | 1035.0 |
| 20260506103333 | 60 | 274 | 1.0 | 2.0 | 0.00 | 0.00 | 0.00 | 75 | 1035.1 |
| 20260506102831 | 60 | 273 | 0.0 | 1.0 | 0.00 | 0.00 | 0.00 | 74 | 1034.9 |
| 20260506102328 | 60 | 261 | 0.0 | 0.0 | 0.00 | 0.00 | 0.00 | 75 | 1034.8 |
| 20260506101825 | 60 | 205 | 0.0 | 0.0 | 0.00 | 0.00 | 0.00 | 75 | 1034.9 |
| 20260506101321 | 60 | 265 | 0.0 | 0.0 | 0.00 | 0.00 | 0.00 | 74 | 1034.6 |
| 20260506100820 | 60 | 256 | 0.0 | 1.0 | 0.00 | 0.00 | 0.00 | 74 | 1034.4 |
| 20260506100318 | 60 | 313 | 2.0 | 3.0 | 0.00 | 0.00 | 0.00 | 73 | 1034.6 |
| 20260506095816 | 60 | 222 | 0.0 | 1.0 | 0.00 | 0.00 | 0.00 | 74 | 1034.4 |
| 20260506095312 | 60 | 233 | 0.0 | 1.0 | 0.00 | 0.00 | 0.00 | 73 | 1034.4 |
| 20260506094809 | 60 | 211 | 0.0 | 2.0 | 0.00 | 0.00 | 0.00 | 74 | 1034.5 |
| 20260506094308 | 60 | 171 | 1.0 | 2.0 | 0.00 | 0.00 | 0.00 | 73 | 1034.4 |
| 20260506093805 | 60 | 250 | 0.0 | 0.0 | 0.00 | 0.00 | 0.00 | 74 | 1034.2 |
| 20260506091016 | 61 | 219 | 0.0 | 1.0 | 0.00 | 0.00 | 0.00 | 73 | 1034.2 |
| 20260506090514 | 61 | 219 | 0.0 | 1.0 | 0.00 | 0.00 | 0.00 | 73 | 1034.2 |
| 20260506090010 | 62 | 260 | 0.0 | 1.0 | 0.00 | 0.00 | 0.00 | 73 | 1034.2 |
| 20260506085507 | 62 | 287 | 0.0 | 1.0 | 0.00 | 0.00 | 0.00 | 73 | 1033.9 |
| 20260506085003 | 62 | 127 | 0.0 | 1.0 | 0.00 | 0.00 | 0.00 | 74 | 1034.1 |
| 20260506084500 | 62 | 254 | 0.0 | 0.0 | 0.00 | 0.00 | 0.00 | 74 | 1034.0 |
| 20260506083956 | 62 | 237 | 1.0 | 1.0 | 0.00 | 0.00 | 0.00 | 74 | 1033.7 |
| 20260506083454 | 62 | 290 | 0.0 | 1.0 | 0.00 | 0.00 | 0.00 | 74 | 1033.6 |
| 20260506082951 | 62 | 172 | 0.0 | 0.0 | 0.00 | 0.00 | 0.00 | 74 | 1033.5 |
| 20260506082448 | 62 | 265 | 0.0 | 1.0 | 0.00 | 0.00 | 0.00 | 74 | 1033.7 |
| 20260506081943 | 62 | 287 | 0.0 | 1.0 | 0.00 | 0.00 | 0.00 | 74 | 1034.2 |
| 20260506081442 | 62 | 235 | 0.0 | 0.0 | 0.00 | 0.00 | 0.00 | 74 | 1033.9 |
| 20260506080939 | 62 | 270 | 0.0 | 1.0 | 0.00 | 0.00 | 0.00 | 74 | 1033.6 |
| 20260506080436 | 63 | 211 | 0.0 | 1.0 | 0.00 | 0.00 | 0.00 | 74 | 1033.7 |
| 20260506073420 | 63 | 213 | 0.0 | 0.0 | 0.00 | 0.00 | 0.00 | 75 | 1033.6 |
| 20260506072917 | 63 | 250 | 0.0 | 1.0 | 0.00 | 0.00 | 0.00 | 74 | 1033.4 |
| 20260506072414 | 63 | 186 | 0.0 | 2.0 | 0.00 | 0.00 | 0.00 | 75 | 1033.5 |
| 20260506071912 | 63 | 195 | 0.0 | 2.0 | 0.00 | 0.00 | 0.00 | 75 | 1033.6 |
| 20260506071410 | 63 | 322 | 1.0 | 2.0 | 0.00 | 0.00 | 0.00 | 75 | 1033.7 |
| 20260506070906 | 63 | 278 | 0.0 | 1.0 | 0.00 | 0.00 | 0.00 | 75 | 1033.6 |
| 20260506070403 | 63 | 256 | 0.0 | 4.0 | 0.00 | 0.00 | 0.00 | 75 | 1033.6 |
| 20260506062340 | 65 | 248 | 0.0 | 1.0 | 0.00 | 0.00 | 0.00 | 73 | 1033.4 |
| 20260506061836 | 65 | 244 | 0.0 | 1.0 | 0.00 | 0.00 | 0.00 | 73 | 1033.3 |
| 20260506061333 | 65 | 292 | 0.0 | 1.0 | 0.00 | 0.00 | 0.00 | 73 | 1033.3 |
| 20260506060831 | 65 | 153 | 0.0 | 1.0 | 0.00 | 0.00 | 0.00 | 73 | 1033.4 |
| 20260506060329 | 66 | 276 | 0.0 | 1.0 | 0.00 | 0.00 | 0.00 | 72 | 1033.4 |
| 20260506051301 | 67 | 246 | 0.0 | 1.0 | 0.00 | 0.00 | 0.00 | 73 | 1033.4 |
| 20260506050759 | 67 | 299 | 0.0 | 1.0 | 0.00 | 0.00 | 0.00 | 73 | 1033.5 |
| 20260506050256 | 67 | 235 | 0.0 | 1.0 | 0.00 | 0.00 | 0.00 | 73 | 1033.2 |
| 20260506044746 | 68 | 228 | 0.0 | 0.0 | 0.00 | 0.00 | 0.00 | 72 | 1033.2 |
| 20260506044244 | 68 | 266 | 0.0 | 3.0 | 0.00 | 0.00 | 0.00 | 72 | 1033.0 |
| 20260506043741 | 69 | 293 | 1.0 | 1.0 | 0.00 | 0.00 | 0.00 | 71 | 1033.1 |
| 20260506043238 | 69 | 202 | 0.0 | 4.0 | 0.00 | 0.00 | 0.00 | 71 | 1033.3 |
| 20260506042737 | 69 | 251 | 1.0 | 1.0 | 0.00 | 0.00 | 0.00 | 71 | 1033.2 |
| 20260506042235 | 70 | 248 | 1.0 | 2.0 | 0.00 | 0.00 | 0.00 | 71 | 1033.3 |
| 20260506041733 | 70 | 255 | 0.0 | 1.0 | 0.00 | 0.00 | 0.00 | 70 | 1033.3 |
| 20260506041230 | 70 | 241 | 0.0 | 1.0 | 0.00 | 0.00 | 0.00 | 70 | 1033.2 |
| 20260506040728 | 70 | 283 | 0.0 | 1.0 | 0.00 | 0.00 | 0.00 | 70 | 1033.2 |
| 20260506040224 | 70 | 213 | 0.0 | 1.0 | 0.00 | 0.00 | 0.00 | 70 | 1032.9 |
| 20260506035721 | 70 | 253 | 2.0 | 2.0 | 0.00 | 0.00 | 0.00 | 70 | 1033.0 |
| 20260506035218 | 70 | 207 | 0.0 | 1.0 | 0.00 | 0.00 | 0.00 | 69 | 1032.5 |
| 20260506034715 | 70 | 203 | 1.0 | 2.0 | 0.00 | 0.00 | 0.00 | 69 | 1032.5 |
| 20260506034212 | 70 | 267 | 0.0 | 2.0 | 0.00 | 0.00 | 0.00 | 68 | 1032.5 |
| 20260506033709 | 71 | 275 | 1.0 | 1.0 | 0.00 | 0.00 | 0.00 | 68 | 1032.5 |
| 20260506033206 | 71 | 242 | 0.0 | 3.0 | 0.00 | 0.00 | 0.00 | 67 | 1032.3 |
| 20260506032703 | 71 | 230 | 0.0 | 2.0 | 0.00 | 0.00 | 0.00 | 67 | 1032.0 |
| 20260506032200 | 71 | 301 | 0.0 | 2.0 | 0.00 | 0.00 | 0.00 | 67 | 1032.0 |
| 20260506031657 | 71 | 281 | 0.0 | 1.0 | 0.00 | 0.00 | 0.00 | 66 | 1032.1 |
| 20260506031154 | 71 | 247 | 0.0 | 1.0 | 0.00 | 0.00 | 0.00 | 67 | 1032.2 |
| 20260506030653 | 72 | 254 | 0.0 | 0.0 | 0.00 | 0.00 | 0.00 | 67 | 1032.0 |
| 20260506030149 | 72 | 251 | 0.0 | 1.0 | 0.00 | 0.00 | 0.00 | 67 | 1032.0 |
| 20260506025646 | 72 | 282 | 0.0 | 2.0 | 0.00 | 0.00 | 0.00 | 66 | 1031.9 |
| 20260506025142 | 73 | 259 | 1.0 | 3.0 | 0.00 | 0.00 | 0.00 | 66 | 1031.8 |
| 20260506024640 | 73 | 253 | 0.0 | 1.0 | 0.00 | 0.00 | 0.00 | 66 | 1031.6 |
| 20260506024136 | 73 | 260 | 0.0 | 2.0 | 0.00 | 0.00 | 0.00 | 65 | 1031.3 |
| 20260506023632 | 73 | 264 | 0.0 | 1.0 | 0.00 | 0.00 | 0.00 | 65 | 1031.5 |
| 20260506023130 | 74 | 248 | 1.0 | 6.0 | 0.00 | 0.00 | 0.00 | 66 | 1031.3 |
| 20260506022627 | 74 | 256 | 1.0 | 1.0 | 0.00 | 0.00 | 0.00 | 65 | 1030.9 |
| 20260506022124 | 75 | 257 | 1.0 | 1.0 | 0.00 | 0.00 | 0.00 | 64 | 1030.7 |
| 20260506021622 | 75 | 263 | 0.0 | 1.0 | 0.00 | 0.00 | 0.00 | 64 | 1030.8 |
| 20260506021119 | 75 | 248 | 0.0 | 0.0 | 0.00 | 0.00 | 0.00 | 64 | 1030.5 |
| 20260506020616 | 75 | 254 | 0.0 | 1.0 | 0.00 | 0.00 | 0.00 | 64 | 1030.4 |
| 20260506020114 | 76 | 277 | 0.0 | 0.0 | 0.00 | 0.00 | 0.00 | 64 | 1030.1 |
| 20260506015611 | 76 | 255 | 0.0 | 1.0 | 0.00 | 0.00 | 0.00 | 64 | 1030.2 |
| 20260506015108 | 76 | 51 | 0.0 | 1.0 | 0.00 | 0.00 | 0.00 | 63 | 1030.0 |
| 20260506014606 | 77 | 283 | 1.0 | 1.0 | 0.00 | 0.00 | 0.00 | 63 | 1030.0 |
| 20260506014101 | 77 | 119 | 0.0 | 0.0 | 0.00 | 0.00 | 0.00 | 63 | 1030.0 |
| 20260506013559 | 78 | 212 | 1.0 | 3.0 | 0.00 | 0.00 | 0.00 | 62 | 1029.8 |
| 20260506013055 | 78 | 247 | 0.0 | 1.0 | 0.00 | 0.00 | 0.00 | 62 | 1029.6 |
| 20260506012552 | 78 | 200 | 0.0 | 1.0 | 0.00 | 0.00 | 0.00 | 61 | 1029.5 |
| 20260506012048 | 79 | 260 | 0.0 | 2.0 | 0.00 | 0.00 | 0.00 | 61 | 1029.5 |
| 20260506011547 | 79 | 229 | 0.0 | 1.0 | 0.00 | 0.00 | 0.00 | 61 | 1029.5 |
| 20260506011042 | 80 | 224 | 0.0 | 1.0 | 0.00 | 0.00 | 0.00 | 61 | 1029.8 |
| 20260506010542 | 80 | 202 | 0.0 | 0.0 | 0.00 | 0.00 | 0.00 | 60 | 1029.6 |
| 20260506010038 | 80 | 237 | 1.0 | 1.0 | 0.00 | 0.00 | 0.00 | 60 | 1029.4 |
| 20260506005535 | 80 | 276 | 0.0 | 1.0 | 0.00 | 0.00 | 0.00 | 60 | 1029.1 |
| 20260506005031 | 81 | 251 | 0.0 | 0.0 | 0.00 | 0.00 | 0.00 | 58 | 1028.8 |
| 20260506004529 | 81 | 251 | 0.0 | 1.0 | 0.00 | 0.00 | 0.00 | 58 | 1029.0 |
| 20260506004025 | 81 | 209 | 1.0 | 2.0 | 0.00 | 0.00 | 0.00 | 58 | 1029.3 |
| 20260506003522 | 82 | 229 | 0.0 | 1.0 | 0.00 | 0.00 | 0.00 | 58 | 1028.9 |
| 20260506003018 | 82 | 216 | 0.0 | 1.0 | 0.00 | 0.00 | 0.00 | 58 | 1029.0 |
| 20260506002514 | 83 | 351 | 0.0 | 1.0 | 0.00 | 0.00 | 0.00 | 57 | 1028.8 |
| 20260506002009 | 83 | 249 | 0.0 | 1.0 | 0.00 | 0.00 | 0.00 | 58 | 1028.9 |
| 20260506001506 | 84 | 259 | 0.0 | 0.0 | 0.00 | 0.00 | 0.00 | 57 | 1029.2 |
| 20260506001004 | 85 | 277 | 0.0 | 2.0 | 0.00 | 0.00 | 0.00 | 59 | 1028.9 |
| 20260506000501 | 85 | 189 | 1.0 | 2.0 | 0.00 | 0.00 | 0.00 | 66 | 1028.8 |
| 20260505235958 | 85 | 4 | 2.0 | 2.0 | 0.00 | 0.00 | 0.00 | 66 | 1028.4 |
| 20260505235456 | 86 | 157 | 2.0 | 3.0 | 0.00 | 0.00 | 0.00 | 65 | 1028.3 |
| 20260505234952 | 86 | 262 | 1.0 | 1.0 | 0.00 | 0.00 | 0.00 | 66 | 1028.4 |
| 20260505234450 | 86 | 184 | 0.0 | 1.0 | 0.00 | 0.00 | 0.00 | 65 | 1028.3 |
| 20260505233947 | 86 | 220 | 1.0 | 3.0 | 0.00 | 0.00 | 0.00 | 65 | 1028.0 |
| 20260505233444 | 86 | 249 | 4.0 | 6.0 | 0.00 | 0.00 | 0.00 | 64 | 1028.2 |
| 20260505232941 | 87 | 180 | 3.0 | 8.0 | 0.00 | 0.00 | 0.00 | 64 | 1028.0 |
| 20260505232440 | 87 | 163 | 2.0 | 7.0 | 0.00 | 0.00 | 0.00 | 63 | 1027.8 |
| 20260505231936 | 88 | 131 | 4.0 | 7.0 | 0.00 | 0.00 | 0.00 | 62 | 1027.7 |
| 20260505231433 | 88 | 162 | 2.0 | 6.0 | 0.00 | 0.00 | 0.00 | 62 | 1027.9 |
| 20260505230932 | 88 | 209 | 2.0 | 8.0 | 0.00 | 0.00 | 0.00 | 62 | 1028.0 |
| 20260505230429 | 89 | 207 | 2.0 | 8.0 | 0.00 | 0.00 | 0.00 | 61 | 1028.1 |
| 20260505225925 | 89 | 172 | 3.0 | 6.0 | 0.00 | 0.00 | 0.00 | 59 | 1027.9 |
| 20260505225423 | 90 | 199 | 4.0 | 7.0 | 0.00 | 0.00 | 0.00 | 55 | 1027.5 |
| 20260505224918 | 90 | 179 | 2.0 | 6.0 | 0.00 | 0.00 | 0.00 | 53 | 1027.4 |
| 20260505224415 | 91 | 176 | 2.0 | 6.0 | 0.00 | 0.00 | 0.00 | 54 | 1027.5 |
| 20260505223912 | 90 | 206 | 5.0 | 7.0 | 0.00 | 0.00 | 0.00 | 54 | 1027.6 |
| 20260505223409 | 91 | 197 | 2.0 | 8.0 | 0.00 | 0.00 | 0.00 | 54 | 1027.6 |
| 20260505222905 | 91 | 143 | 2.0 | 3.0 | 0.00 | 0.00 | 0.00 | 54 | 1027.6 |
| 20260505222402 | 91 | 177 | 2.0 | 7.0 | 0.00 | 0.00 | 0.00 | 54 | 1027.6 |
| 20260505221858 | 90 | 189 | 2.0 | 6.0 | 0.00 | 0.00 | 0.00 | 54 | 1027.4 |
| 20260505221355 | 91 | 147 | 4.0 | 7.0 | 0.00 | 0.00 | 0.00 | 53 | 1027.4 |
| 20260505220852 | 91 | 242 | 2.0 | 4.0 | 0.00 | 0.00 | 0.00 | 52 | 1027.6 |
| 20260505220349 | 91 | 231 | 2.0 | 3.0 | 0.00 | 0.00 | 0.00 | 51 | 1027.3 |
| 20260505215847 | 91 | 230 | 0.0 | 2.0 | 0.00 | 0.00 | 0.00 | 50 | 1027.3 |
| 20260505215345 | 92 | 159 | 4.0 | 8.0 | 0.00 | 0.00 | 0.00 | 49 | 1027.3 |
| 20260505214843 | 92 | 220 | 0.0 | 6.0 | 0.00 | 0.00 | 0.00 | 49 | 1027.2 |
| 20260505214340 | 92 | 149 | 2.0 | 3.0 | 0.00 | 0.00 | 0.00 | 48 | 1027.4 |
| 20260505213837 | 92 | 277 | 1.0 | 3.0 | 0.00 | 0.00 | 0.00 | 50 | 1027.5 |
| 20260505213335 | 92 | 168 | 2.0 | 3.0 | 0.00 | 0.00 | 0.00 | 50 | 1027.3 |
| 20260505212831 | 92 | 159 | 1.0 | 3.0 | 0.00 | 0.00 | 0.00 | 49 | 1027.5 |
| 20260505212328 | 91 | 146 | 0.0 | 3.0 | 0.00 | 0.00 | 0.00 | 50 | 1027.8 |
| 20260505211824 | 92 | 260 | 2.0 | 4.0 | 0.00 | 0.00 | 0.00 | 50 | 1027.8 |
| 20260505211322 | 91 | 292 | 1.0 | 2.0 | 0.00 | 0.00 | 0.00 | 51 | 1027.9 |
| 20260505210818 | 91 | 148 | 1.0 | 2.0 | 0.00 | 0.00 | 0.00 | 53 | 1028.0 |
| 20260505210315 | 92 | 231 | 1.0 | 2.0 | 0.00 | 0.00 | 0.00 | 53 | 1027.8 |
| 20260505205812 | 92 | 240 | 1.0 | 2.0 | 0.00 | 0.00 | 0.00 | 51 | 1028.1 |
| 20260505205310 | 91 | 189 | 2.0 | 3.0 | 0.00 | 0.00 | 0.00 | 51 | 1028.0 |
| 20260505204807 | 91 | 168 | 2.0 | 7.0 | 0.00 | 0.00 | 0.00 | 50 | 1028.2 |
| 20260505204304 | 90 | 180 | 1.0 | 3.0 | 0.00 | 0.00 | 0.00 | 53 | 1028.2 |
| 20260505203801 | 90 | 125 | 0.0 | 3.0 | 0.00 | 0.00 | 0.00 | 54 | 1028.2 |
| 20260505203258 | 90 | 192 | 2.0 | 7.0 | 0.00 | 0.00 | 0.00 | 53 | 1028.4 |
| 20260505202754 | 90 | 214 | 2.0 | 6.0 | 0.00 | 0.00 | 0.00 | 53 | 1028.4 |
| 20260505202251 | 90 | 156 | 1.0 | 2.0 | 0.00 | 0.00 | 0.00 | 54 | 1028.4 |
| 20260505201747 | 90 | 195 | 2.0 | 4.0 | 0.00 | 0.00 | 0.00 | 52 | 1028.5 |
| 20260505201245 | 91 | 263 | 2.0 | 7.0 | 0.00 | 0.00 | 0.00 | 53 | 1028.6 |
| 20260505200743 | 91 | 189 | 2.0 | 3.0 | 0.00 | 0.00 | 0.00 | 53 | 1028.7 |
| 20260505200240 | 91 | 227 | 1.0 | 3.0 | 0.00 | 0.00 | 0.00 | 54 | 1028.7 |
| 20260505195735 | 91 | 173 | 1.0 | 3.0 | 0.00 | 0.00 | 0.00 | 55 | 1028.6 |
| 20260505195233 | 90 | 192 | 2.0 | 2.0 | 0.00 | 0.00 | 0.00 | 55 | 1028.6 |
| 20260505194730 | 91 | 278 | 1.0 | 6.0 | 0.00 | 0.00 | 0.00 | 54 | 1028.7 |
| 20260505194226 | 90 | 277 | 1.0 | 6.0 | 0.00 | 0.00 | 0.00 | 56 | 1028.8 |
| 20260505193722 | 89 | 267 | 0.0 | 4.0 | 0.00 | 0.00 | 0.00 | 56 | 1028.6 |
| 20260505193220 | 89 | 264 | 2.0 | 7.0 | 0.00 | 0.00 | 0.00 | 56 | 1029.0 |
| 20260505192718 | 89 | 231 | 1.0 | 3.0 | 0.00 | 0.00 | 0.00 | 56 | 1028.8 |
| 20260505192215 | 89 | 283 | 2.0 | 7.0 | 0.00 | 0.00 | 0.00 | 57 | 1028.5 |
| 20260505191714 | 89 | 236 | 3.0 | 7.0 | 0.00 | 0.00 | 0.00 | 57 | 1028.6 |
| 20260505191212 | 88 | 321 | 1.0 | 3.0 | 0.00 | 0.00 | 0.00 | 58 | 1028.7 |
| 20260505190708 | 88 | 186 | 4.0 | 7.0 | 0.00 | 0.00 | 0.00 | 58 | 1028.8 |
| 20260505190207 | 89 | 163 | 5.0 | 7.0 | 0.00 | 0.00 | 0.00 | 56 | 1029.0 |
| 20260505185704 | 88 | 259 | 2.0 | 4.0 | 0.00 | 0.00 | 0.00 | 57 | 1029.0 |
| 20260505185201 | 88 | 204 | 3.0 | 3.0 | 0.00 | 0.00 | 0.00 | 60 | 1029.2 |
| 20260505184657 | 87 | 265 | 2.0 | 4.0 | 0.00 | 0.00 | 0.00 | 59 | 1029.1 |
| 20260505184154 | 87 | 140 | 3.0 | 6.0 | 0.00 | 0.00 | 0.00 | 61 | 1029.2 |
| 20260505183651 | 87 | 293 | 1.0 | 4.0 | 0.00 | 0.00 | 0.00 | 61 | 1029.2 |
| 20260505183149 | 87 | 151 | 0.0 | 2.0 | 0.00 | 0.00 | 0.00 | 62 | 1029.2 |
| 20260505182645 | 87 | 220 | 3.0 | 6.0 | 0.00 | 0.00 | 0.00 | 60 | 1029.3 |
| 20260505182142 | 86 | 268 | 2.0 | 8.0 | 0.00 | 0.00 | 0.00 | 61 | 1029.3 |
| 20260505181638 | 86 | 237 | 4.0 | 9.0 | 0.00 | 0.00 | 0.00 | 60 | 1029.2 |
| 20260505181136 | 86 | 225 | 0.0 | 7.0 | 0.00 | 0.00 | 0.00 | 63 | 1029.5 |
| 20260505180632 | 86 | 151 | 3.0 | 7.0 | 0.00 | 0.00 | 0.00 | 62 | 1029.4 |
| 20260505180129 | 86 | 145 | 1.0 | 4.0 | 0.00 | 0.00 | 0.00 | 63 | 1029.4 |
| 20260505175625 | 85 | 171 | 1.0 | 3.0 | 0.00 | 0.00 | 0.00 | 63 | 1029.4 |
| 20260505175122 | 85 | 204 | 1.0 | 7.0 | 0.00 | 0.00 | 0.00 | 63 | 1029.4 |
| 20260505174618 | 85 | 118 | 3.0 | 7.0 | 0.00 | 0.00 | 0.00 | 63 | 1029.2 |
| 20260505174114 | 84 | 157 | 3.0 | 6.0 | 0.00 | 0.00 | 0.00 | 64 | 1029.4 |
| 20260505173611 | 84 | 183 | 2.0 | 4.0 | 0.00 | 0.00 | 0.00 | 64 | 1029.4 |
| 20260505173108 | 84 | 146 | 5.0 | 9.0 | 0.00 | 0.00 | 0.00 | 63 | 1029.5 |
| 20260505172606 | 84 | 154 | 2.0 | 4.0 | 0.00 | 0.00 | 0.00 | 64 | 1029.5 |
| 20260505172102 | 84 | 152 | 1.0 | 4.0 | 0.00 | 0.00 | 0.00 | 64 | 1029.6 |
| 20260505171557 | 83 | 168 | 1.0 | 3.0 | 0.00 | 0.00 | 0.00 | 65 | 1029.3 |
| 20260505171054 | 83 | 217 | 3.0 | 6.0 | 0.00 | 0.00 | 0.00 | 65 | 1029.5 |
| 20260505170551 | 84 | 166 | 3.0 | 8.0 | 0.00 | 0.00 | 0.00 | 64 | 1029.7 |
| 20260505170047 | 84 | 124 | 1.0 | 3.0 | 0.00 | 0.00 | 0.00 | 65 | 1029.6 |
| 20260505165542 | 84 | 167 | 3.0 | 4.0 | 0.00 | 0.00 | 0.00 | 64 | 1029.8 |
| 20260505165038 | 84 | 231 | 4.0 | 7.0 | 0.00 | 0.00 | 0.00 | 63 | 1029.6 |
| 20260505164535 | 83 | 162 | 1.0 | 3.0 | 0.00 | 0.00 | 0.00 | 66 | 1029.2 |
| 20260505164032 | 83 | 255 | 3.0 | 8.0 | 0.00 | 0.00 | 0.00 | 65 | 1029.3 |
| 20260505163531 | 83 | 160 | 5.0 | 11.0 | 0.00 | 0.00 | 0.00 | 64 | 1029.2 |
| 20260505163027 | 82 | 202 | 4.0 | 8.0 | 0.00 | 0.00 | 0.00 | 65 | 1029.5 |
| 20260505162521 | 82 | 225 | 2.0 | 6.0 | 0.00 | 0.00 | 0.00 | 67 | 1029.2 |
| 20260505162018 | 81 | 162 | 2.0 | 7.0 | 0.00 | 0.00 | 0.00 | 68 | 1029.4 |
| 20260505161514 | 81 | 77 | 3.0 | 9.0 | 0.00 | 0.00 | 0.00 | 69 | 1029.1 |
| 20260505161011 | 81 | 180 | 2.0 | 9.0 | 0.00 | 0.00 | 0.00 | 69 | 1029.3 |
| 20260505160510 | 81 | 222 | 3.0 | 8.0 | 0.00 | 0.00 | 0.00 | 69 | 1029.4 |
| 20260505152946 | 78 | 165 | 3.0 | 7.0 | 0.00 | 0.00 | 0.00 | 73 | 1029.6 |
| 20260505152443 | 79 | 139 | 3.0 | 6.0 | 0.00 | 0.00 | 0.00 | 73 | 1029.4 |
| 20260505151943 | 79 | 336 | 3.0 | 8.0 | 0.00 | 0.00 | 0.00 | 71 | 1029.6 |
| 20260505151439 | 78 | 238 | 2.0 | 4.0 | 0.00 | 0.00 | 0.00 | 73 | 1029.5 |
| 20260505150937 | 78 | 188 | 3.0 | 7.0 | 0.00 | 0.00 | 0.00 | 74 | 1029.5 |
| 20260505150434 | 77 | 174 | 2.0 | 7.0 | 0.00 | 0.00 | 0.00 | 75 | 1029.6 |
| 20260505140404 | 74 | 184 | 5.0 | 11.0 | 0.00 | 0.00 | 0.00 | 80 | 1029.2 |
| 20260505124817 | 70 | 189 | 3.0 | 4.0 | 0.00 | 0.00 | 0.00 | 86 | 1028.7 |
| 20260505124314 | 70 | 192 | 1.0 | 4.0 | 0.00 | 0.00 | 0.00 | 86 | 1028.6 |